Hourly Weather Luhove

Today, 18 May, Tuesday

Time Temperature Precipitation Wind Pressure Humidity
00:00 +13°C° 0 mm 2 mps 735 mmHg 90%
01:00 +13°C° 0 mm 2 mps 735 mmHg 90%
02:00 +12°C° 0 mm 2 mps 735 mmHg 91%
03:00 +12°C° 0 mm 2 mps 735 mmHg 90%
04:00 +13°C° 0 mm 2 mps 735 mmHg 89%
05:00 +12°C° 0 mm 3 mps 734 mmHg 87%
06:00 +14°C° 0 mm 3 mps 735 mmHg 79%
07:00 +17°C° 0 mm 3 mps 735 mmHg 70%
08:00 +19°C° 0 mm 4 mps 735 mmHg 61%
09:00 +20°C° 0.1 mm 4 mps 734 mmHg 60%
10:00 +20°C° 0.1 mm 5 mps 734 mmHg 59%
11:00 +21°C° 0.1 mm 5 mps 734 mmHg 58%
12:00 +20°C° 0.2 mm 6 mps 734 mmHg 62%
13:00 +19°C° 0.2 mm 6 mps 734 mmHg 66%
14:00 +17°C° 0.2 mm 6 mps 734 mmHg 70%
15:00 +17°C° 0.1 mm 6 mps 734 mmHg 69%
16:00 +19°C° 0.1 mm 6 mps 734 mmHg 68%
17:00 +19°C° 0.1 mm 5 mps 734 mmHg 66%
18:00 +16°C° 0 mm 5 mps 734 mmHg 69%
19:00 +15°C° 0 mm 4 mps 734 mmHg 72%
20:00 +14°C° 0 mm 4 mps 734 mmHg 75%
21:00 +14°C° 0 mm 4 mps 734 mmHg 73%
22:00 +14°C° 0 mm 4 mps 734 mmHg 72%
23:00 +13°C° 0 mm 5 mps 733 mmHg 71%

Tomorrow, 19 May, Wednesday

Time Temperature Precipitation Wind Pressure Humidity
00:00 +13°C° 0 mm 5 mps 734 mmHg 73%
01:00 +13°C° 0 mm 5 mps 734 mmHg 75%
02:00 +13°C° 0 mm 5 mps 734 mmHg 77%
03:00 +13°C° 0 mm 5 mps 734 mmHg 77%
04:00 +12°C° 0 mm 5 mps 734 mmHg 78%
05:00 +11°C° 0 mm 6 mps 734 mmHg 78%
06:00 +13°C° 0 mm 6 mps 734 mmHg 73%
07:00 +14°C° 0 mm 7 mps 734 mmHg 68%
08:00 +15°C° 0 mm 8 mps 734 mmHg 63%
09:00 +15°C° 0.1 mm 8 mps 735 mmHg 66%
10:00 +15°C° 0.1 mm 9 mps 735 mmHg 69%
11:00 +15°C° 0.1 mm 9 mps 735 mmHg 72%
12:00 +13°C° 0.1 mm 9 mps 736 mmHg 76%
13:00 +13°C° 0.1 mm 8 mps 736 mmHg 80%
14:00 +12°C° 0.1 mm 8 mps 736 mmHg 83%
15:00 +13°C° 0 mm 8 mps 737 mmHg 81%
16:00 +13°C° 0 mm 8 mps 737 mmHg 78%
17:00 +15°C° 0 mm 8 mps 737 mmHg 76%
18:00 +14°C° 0 mm 7 mps 737 mmHg 78%
19:00 +13°C° 0 mm 6 mps 738 mmHg 80%
20:00 +11°C° 0 mm 6 mps 738 mmHg 82%
21:00 +12°C° 0 mm 5 mps 738 mmHg 81%
22:00 +12°C° 0 mm 5 mps 738 mmHg 80%
23:00 +12°C° 0 mm 4 mps 738 mmHg 78%

Day after tomorrow, 20 May, Thursday

Time Temperature Precipitation Wind Pressure Humidity
00:00 +11°C° 0 mm 3 mps 738 mmHg 78%
01:00 +11°C° 0 mm 3 mps 738 mmHg 78%
02:00 +11°C° 0 mm 3 mps 738 mmHg 77%
03:00 +12°C° 0 mm 2 mps 738 mmHg 76%
04:00 +12°C° 0 mm 2 mps 738 mmHg 75%
05:00 +13°C° 0 mm 2 mps 738 mmHg 74%
06:00 +15°C° 0 mm 2 mps 738 mmHg 67%
07:00 +17°C° 0 mm 2 mps 738 mmHg 60%
08:00 +19°C° 0 mm 2 mps 738 mmHg 53%
09:00 +20°C° 0 mm 2 mps 738 mmHg 48%
10:00 +22°C° 0 mm 3 mps 738 mmHg 42%
11:00 +24°C° 0 mm 3 mps 738 mmHg 37%
12:00 +24°C° 0 mm 3 mps 737 mmHg 36%
13:00 +25°C° 0 mm 4 mps 737 mmHg 35%
14:00 +25°C° 0 mm 4 mps 737 mmHg 34%
15:00 +23°C° 0 mm 4 mps 737 mmHg 39%
16:00 +22°C° 0 mm 4 mps 736 mmHg 44%
17:00 +21°C° 0 mm 4 mps 736 mmHg 48%
18:00 +19°C° 0 mm 4 mps 736 mmHg 53%
19:00 +17°C° 0 mm 4 mps 736 mmHg 57%
20:00 +14°C° 0 mm 3 mps 736 mmHg 61%
21:00 +14°C° 0 mm 3 mps 736 mmHg 60%
22:00 +14°C° 0 mm 3 mps 736 mmHg 59%
23:00 +15°C° 0 mm 2 mps 736 mmHg 57%

21 May, Friday

Time Temperature Precipitation Wind Pressure Humidity
00:00 +15°C° 0 mm 2 mps 736 mmHg 58%
01:00 +15°C° 0 mm 2 mps 736 mmHg 58%
02:00 +15°C° 0 mm 1 mps 736 mmHg 58%
03:00 +15°C° 0 mm 1 mps 736 mmHg 64%
04:00 +14°C° 0 mm 1 mps 736 mmHg 71%
05:00 +14°C° 0 mm 1 mps 736 mmHg 77%
06:00 +16°C° 0 mm 2 mps 736 mmHg 72%
07:00 +18°C° 0 mm 2 mps 736 mmHg 67%
08:00 +20°C° 0 mm 2 mps 736 mmHg 61%
09:00 +21°C° 0 mm 2 mps 736 mmHg 58%
10:00 +23°C° 0 mm 2 mps 736 mmHg 55%
11:00 +24°C° 0 mm 2 mps 736 mmHg 51%
12:00 +25°C° 0 mm 3 mps 736 mmHg 50%
13:00 +25°C° 0 mm 3 mps 735 mmHg 49%
14:00 +26°C° 0 mm 3 mps 735 mmHg 48%
15:00 +25°C° 0 mm 3 mps 735 mmHg 52%
16:00 +23°C° 0 mm 4 mps 735 mmHg 55%
17:00 +22°C° 0 mm 4 mps 735 mmHg 59%
18:00 +20°C° 0 mm 3 mps 734 mmHg 67%
19:00 +19°C° 0 mm 2 mps 734 mmHg 75%
20:00 +17°C° 0 mm 2 mps 734 mmHg 83%
21:00 +17°C° 0 mm 2 mps 734 mmHg 80%
22:00 +16°C° 0 mm 1 mps 734 mmHg 78%
23:00 +16°C° 0 mm 1 mps 734 mmHg 76%

22 May, Saturday

Time Temperature Precipitation Wind Pressure Humidity
00:00 +16°C° 0 mm 2 mps 734 mmHg 80%
01:00 +15°C° 0 mm 2 mps 734 mmHg 84%
02:00 +15°C° 0 mm 2 mps 733 mmHg 88%
03:00 +15°C° 0 mm 2 mps 734 mmHg 88%
04:00 +15°C° 0 mm 2 mps 734 mmHg 88%
05:00 +15°C° 0 mm 2 mps 734 mmHg 88%
06:00 +17°C° 0 mm 2 mps 734 mmHg 84%
07:00 +19°C° 0 mm 2 mps 735 mmHg 80%
08:00 +20°C° 0 mm 2 mps 735 mmHg 76%
09:00 +21°C° 0 mm 2 mps 735 mmHg 73%
10:00 +23°C° 0 mm 2 mps 735 mmHg 70%
11:00 +25°C° 0 mm 2 mps 735 mmHg 67%
12:00 +25°C° 0 mm 2 mps 735 mmHg 65%
13:00 +26°C° 0 mm 2 mps 735 mmHg 63%
14:00 +26°C° 0 mm 3 mps 735 mmHg 60%
15:00 +26°C° 0 mm 3 mps 735 mmHg 62%
16:00 +26°C° 0 mm 2 mps 735 mmHg 63%
17:00 +25°C° 0 mm 2 mps 735 mmHg 64%
18:00 +24°C° 0 mm 2 mps 736 mmHg 70%
19:00 +21°C° 0 mm 2 mps 736 mmHg 76%
20:00 +21°C° 0 mm 1 mps 736 mmHg 82%
21:00 +20°C° 0 mm 1 mps 736 mmHg 84%
22:00 +20°C° 0 mm 1 mps 736 mmHg 86%
23:00 +17°C° 0 mm 0 mps 736 mmHg 88%

23 May, Sunday

Time Temperature Precipitation Wind Pressure Humidity
00:00 +17°C° 0.1 mm 0 mps 736 mmHg 89%
01:00 +19°C° 0.1 mm 1 mps 736 mmHg 90%
02:00 +18°C° 0.1 mm 1 mps 736 mmHg 91%
03:00 +18°C° 0 mm 1 mps 736 mmHg 92%
04:00 +19°C° 0 mm 1 mps 736 mmHg 92%
05:00 +19°C° 0 mm 1 mps 736 mmHg 92%
06:00 +20°C° 0 mm 1 mps 737 mmHg 86%
07:00 +21°C° 0 mm 2 mps 737 mmHg 79%
08:00 +24°C° 0 mm 2 mps 737 mmHg 72%
09:00 +25°C° 0 mm 2 mps 737 mmHg 66%
10:00 +26°C° 0 mm 2 mps 737 mmHg 61%
11:00 +28°C° 0 mm 3 mps 737 mmHg 55%
12:00 +28°C° 0 mm 3 mps 737 mmHg 53%
13:00 +28°C° 0 mm 3 mps 737 mmHg 51%
14:00 +29°C° 0 mm 3 mps 737 mmHg 49%
15:00 +29°C° 0 mm 2 mps 737 mmHg 51%
16:00 +28°C° 0 mm 2 mps 737 mmHg 53%
17:00 +28°C° 0 mm 2 mps 737 mmHg 55%
18:00 +26°C° 0 mm 2 mps 737 mmHg 62%
19:00 +24°C° 0 mm 2 mps 738 mmHg 69%
20:00 +22°C° 0 mm 1 mps 738 mmHg 77%
21:00 +21°C° 0 mm 1 mps 738 mmHg 78%
22:00 +20°C° 0 mm 2 mps 738 mmHg 80%
23:00 +19°C° 0 mm 2 mps 738 mmHg 81%
Show more

We Need Your Consent

Meteoprog and our Service Providers may store and access personal data such as cookies, device identifiers or other similar technologies on your device and process such data to personalise content and ads, as well as provide social media features and to analyse the traffic.

  • Store and/or access information on your device

    Cookies, device identifiers or other information can be stored or accessed on your device for the purposes indicated above.

  • Personalised ads and content, ad and content measurement, audience insights, and products development

    Ads and content can be personalised based on a profile. More data can be added to better personalise ads and content. Ad and content performance can be measured. Insights about the audience who saw the ads and content can be derived. Such data can be used to develop or improve user’s experience, systems and software.

By clicking ‘I Agree’ you will allow the use of indicated cookies, device identifiers, web beacons or other similar technologies. Your settings can be changed in the browser on your device.

For certain purposes, legitimate interests may be relied on, rather than consent. You can read more about this in our Privacy and Cookie Policy.